Weather History for Starkville, MS

Change the Weather History Date:

Sunday, November 3, 2013

  Actual Average Record
Temperature  
Mean Temperature 48 °F -  
Max Temperature 62 °F 70 °F 82 °F (2012)
Min Temperature 35 °F 46 °F 32 °F (2014)
Degree Days  
Heating Degree Days 16    
Moisture  
Dew Point 38 °F    
Average Humidity 76    
Maximum Humidity 100    
Minimum Humidity 34    
Precipitation  
Precipitation 0.00 in - - ()
Sea Level Pressure  
Sea Level Pressure 30.23 in    
Wind  
Wind Speed 2 mph (ENE)    
Max Wind Speed 10 mph    
Max Gust Speed 18 mph    
Visibility 10 miles    
Events      
Averages and records for this station are not official NWS values.
T = Trace of Precipitation, MM = Missing Value Source: NWS Daily Summary

Daily Weather History Graph

Daily Weather History Graph

Search for Another Location

Airport:

Trip Planner

Search our weather history database for the weather conditions in past years. The results will help you decide how hot, cold, wet, or windy it might be!

Date:

Astronomy

Nov. 03, 2013 Rise Set
Actual Time 6:16 AM CST 5:01 PM CST
Civil Twilight 5:50 AM CST 5:27 PM CST
Nautical Twilight 5:20 AM CST 5:56 PM CST
Astronomical Twilight 4:51 AM CST 6:25 PM CST
Moon 6:19 AM CST (11/3) 5:17 PM CST (11/3)
Length of Visible Light 11h 36m
Length of Day
10h 45m
New Moon, 0% of the Moon is Illuminated
Nov 3
New Moon
Nov 9
First Quarter
Nov 17
Full
Nov 25
Last Quarter
Dec 2
New

Hourly Weather History & Observations

Time (CST) Temp. Windchill Dew Point Humidity Pressure Visibility Wind Dir Wind Speed Gust Speed Precip Events Conditions
12:15 AM 42.8 °F - 41.0 °F 93% 30.19 in 10.0 mi Calm Calm - N/A   Clear
12:35 AM 42.8 °F - 41.0 °F 93% 30.18 in 10.0 mi Calm Calm - N/A   Clear
12:55 AM 41.0 °F - 39.2 °F 93% 30.18 in 10.0 mi Calm Calm - N/A   Clear
1:15 AM 41.0 °F - 39.2 °F 93% 30.19 in 10.0 mi Calm Calm - N/A   Clear
1:35 AM 41.0 °F - 39.2 °F 93% 30.19 in 10.0 mi Calm Calm - N/A   Clear
1:55 AM 41.0 °F - 39.2 °F 93% 30.20 in 10.0 mi Calm Calm - N/A   Clear
1:15 AM 39.2 °F - 37.4 °F 93% 30.20 in 10.0 mi Calm Calm - N/A   Clear
1:35 AM 41.0 °F - 39.2 °F 93% 30.21 in 10.0 mi Calm Calm - N/A   Clear
1:55 AM 41.0 °F 39.0 °F 39.2 °F 93% 30.21 in 10.0 mi NW 3.5 mph - N/A   Clear
2:15 AM 41.0 °F - 39.2 °F 93% 30.21 in 10.0 mi Calm Calm - N/A   Clear
2:35 AM 41.0 °F - 37.4 °F 87% 30.21 in 10.0 mi Calm Calm - N/A   Clear
2:55 AM 41.0 °F - 37.4 °F 87% 30.21 in 10.0 mi Calm Calm - N/A   Clear
3:15 AM 37.4 °F - 35.6 °F 93% 30.20 in 10.0 mi Calm Calm - N/A   Clear
3:35 AM 35.6 °F - 35.6 °F 100% 30.21 in 7.0 mi Calm Calm - N/A   Clear
3:55 AM 37.4 °F - 35.6 °F 93% 30.21 in 10.0 mi Calm Calm - N/A   Clear
4:15 AM 35.6 °F - 35.6 °F 100% 30.22 in 10.0 mi Calm Calm - N/A   Clear
4:35 AM 35.6 °F - 35.6 °F 100% 30.22 in 10.0 mi Calm Calm - N/A   Clear
4:55 AM 35.6 °F - 35.6 °F 100% 30.23 in 7.0 mi Calm Calm - N/A   Clear
5:15 AM 35.6 °F - 35.6 °F 100% 30.23 in 5.0 mi Calm Calm - N/A   Clear
5:35 AM 35.6 °F - 35.6 °F 100% 30.23 in 7.0 mi Calm Calm - N/A   Clear
5:55 AM 37.4 °F - 35.6 °F 93% 30.24 in 10.0 mi Calm Calm - N/A   Clear
6:15 AM 37.4 °F - 35.6 °F 93% 30.25 in 10.0 mi Calm Calm - N/A   Clear
6:35 AM 35.6 °F - 35.6 °F 100% 30.27 in 7.0 mi Calm Calm - N/A   Clear
6:55 AM 37.4 °F - 35.6 °F 93% 30.28 in 10.0 mi Calm Calm - N/A   Clear
7:15 AM 37.4 °F - 37.4 °F 100% 30.30 in 10.0 mi Calm Calm - N/A   Clear
7:35 AM 41.0 °F - 39.2 °F 93% 30.30 in 10.0 mi Calm Calm - N/A   Clear
7:55 AM 42.8 °F 39.3 °F 41.0 °F 93% 30.30 in 10.0 mi NNE 5.8 mph - N/A   Clear
8:15 AM 44.6 °F 43.1 °F 41.0 °F 87% 30.30 in 10.0 mi NNE 3.5 mph - N/A   Clear
8:35 AM 50.0 °F - 41.0 °F 71% 30.30 in 10.0 mi NE 8.1 mph - N/A   Clear
8:55 AM 50.0 °F - 41.0 °F 71% 30.30 in 10.0 mi ENE 8.1 mph - N/A   Clear
9:15 AM 51.8 °F - 41.0 °F 67% 30.31 in 10.0 mi NE 6.9 mph 10.4 mph N/A   Clear
9:35 AM 51.8 °F - 41.0 °F 67% 30.30 in 10.0 mi NE 5.8 mph - N/A   Clear
9:55 AM 53.6 °F - 41.0 °F 62% 30.30 in 10.0 mi NE 9.2 mph - N/A   Clear
10:15 AM 55.4 °F - 39.2 °F 54% 30.30 in 10.0 mi NE 9.2 mph - N/A   Clear
10:35 AM 55.4 °F - 37.4 °F 51% 30.30 in 10.0 mi East 6.9 mph - N/A   Clear
10:55 AM 57.2 °F - 37.4 °F 48% 30.28 in 10.0 mi East 9.2 mph - N/A   Clear
11:15 AM 59.0 °F - 35.6 °F 42% 30.28 in 10.0 mi ENE 8.1 mph - N/A   Clear
11:35 AM 59.0 °F - 35.6 °F 42% 30.26 in 10.0 mi ENE 3.5 mph - N/A   Clear
11:55 AM 59.0 °F - 35.6 °F 42% 30.25 in 10.0 mi ENE 8.1 mph - N/A   Clear
12:15 PM 60.8 °F - 35.6 °F 39% 30.23 in 10.0 mi East 10.4 mph 18.4 mph N/A   Clear
12:35 PM 60.8 °F - 33.8 °F 36% 30.22 in 10.0 mi ENE 3.5 mph - N/A   Clear
12:55 PM 60.8 °F - 35.6 °F 39% 30.22 in 10.0 mi ENE 6.9 mph - N/A   Clear
1:15 PM 60.8 °F - 35.6 °F 39% 30.21 in 10.0 mi ENE 3.5 mph - N/A   Clear
1:35 PM 60.8 °F - 33.8 °F 36% 30.21 in 10.0 mi East 5.8 mph - N/A   Clear
1:55 PM 62.6 °F - 35.6 °F 37% 30.20 in 10.0 mi East 6.9 mph - N/A   Clear
2:15 PM 62.6 °F - 35.6 °F 37% 30.20 in 10.0 mi East 6.9 mph - N/A   Clear
2:35 PM 62.6 °F - 35.6 °F 37% 30.20 in 10.0 mi NE 4.6 mph - N/A   Clear
2:55 PM 62.6 °F - 33.8 °F 34% 30.19 in 10.0 mi ENE 5.8 mph - N/A   Clear
3:15 PM 62.6 °F - 33.8 °F 34% 30.19 in 10.0 mi Calm Calm - N/A   Clear
3:35 PM 62.6 °F - 33.8 °F 34% 30.18 in 10.0 mi East 8.1 mph - N/A   Clear
3:55 PM 62.6 °F - 35.6 °F 37% 30.18 in 10.0 mi East 5.8 mph - N/A   Clear
4:15 PM 60.8 °F - 35.6 °F 39% 30.17 in 10.0 mi ENE 4.6 mph - N/A   Clear
4:35 PM 59.0 °F - 35.6 °F 42% 30.17 in 10.0 mi ENE 5.8 mph - N/A   Clear
4:55 PM 55.4 °F - 37.4 °F 51% 30.17 in 7.0 mi Calm Calm - N/A   Clear
5:15 PM 50.0 °F - 42.8 °F 76% 30.18 in 10.0 mi Calm Calm - N/A   Clear
5:35 PM 48.2 °F - 41.0 °F 76% 30.17 in 10.0 mi Calm Calm - N/A   Clear
5:55 PM 46.4 °F - 41.0 °F 81% 30.19 in 10.0 mi Calm Calm - N/A   Clear
6:15 PM 44.6 °F - 41.0 °F 87% 30.19 in 10.0 mi Calm Calm - N/A   Clear
6:35 PM 44.6 °F - 41.0 °F 87% 30.20 in 10.0 mi Calm Calm - N/A   Clear
6:55 PM 42.8 °F - 41.0 °F 93% 30.21 in 10.0 mi Calm Calm - N/A   Clear
7:15 PM 42.8 °F - 41.0 °F 93% 30.22 in 10.0 mi Calm Calm - N/A   Clear
7:35 PM 42.8 °F - 41.0 °F 93% 30.22 in 10.0 mi Calm Calm - N/A   Clear
7:55 PM 41.0 °F - 41.0 °F 100% 30.23 in 10.0 mi Calm Calm - N/A   Clear
8:15 PM 41.0 °F - 39.2 °F 93% 30.23 in 10.0 mi Calm Calm - N/A   Clear
8:35 PM 41.0 °F - 39.2 °F 93% 30.23 in 10.0 mi Calm Calm - N/A   Clear
8:55 PM 39.2 °F - 37.4 °F 93% 30.23 in 10.0 mi Calm Calm - N/A   Clear
9:15 PM 39.2 °F - 37.4 °F 93% 30.22 in 10.0 mi Calm Calm - N/A   Clear
9:35 PM 39.2 °F - 37.4 °F 93% 30.22 in 10.0 mi Calm Calm - N/A   Clear
9:55 PM 37.4 °F - 37.4 °F 100% 30.23 in 10.0 mi Calm Calm - N/A   Clear
10:15 PM 37.4 °F - 37.4 °F 100% 30.23 in 10.0 mi Calm Calm - N/A   Clear
10:35 PM 37.4 °F - 37.4 °F 100% 30.23 in 10.0 mi Calm Calm - N/A   Clear
10:55 PM 37.4 °F - 37.4 °F 100% 30.23 in 10.0 mi Calm Calm - N/A   Clear